Location: Jaunay
(46.6845°N, 0.3713°E)
Time: 22:11:21
(UTC+00:00)

Daily predictions for brighter satellites

Satellite Brightness Start Highest point End
(mag) Time Altitude Azimuth Time Altitude Azimuth Time Altitude Azimuth
Cosmos 2322 Rocket 3.1 20:29:01 10° NW 20:34:27 46° WSW 20:39:51 10° S
Cosmos 2333 4.4 20:31:56 10° NNW 20:37:43 77° WSW 20:43:29 10° SSE
Meteor 1-23 Rocket 4.5 20:32:42 10° SSW 20:38:24 80° W 20:44:13 10° N
DNEPR-1 R/B 4.4 20:31:54 10° NW 20:38:31 78° WSW 20:43:47 10° SSE
Cosmos 2297 Rocket 3.9 20:38:48 10° SE 20:41:45 15° E 20:44:42 10° ENE
Aureole 3 4.1 20:38:29 10° S 20:42:57 58° E 20:48:32 10° NNE
Cosmos 1707 Rocket 3.6 20:38:48 10° S 20:43:14 83° E 20:47:39 10° N
Cosmos 1356 Rocket 3.6 20:39:08 10° SSW 20:43:20 79° WNW 20:47:32 10° N
Cosmos 1758 3.7 20:41:34 10° NNW 20:45:28 63° W 20:49:22 10° S
Cosmos 2219 Rocket 2.3 20:43:57 10° NNW 20:49:40 84° WSW 20:55:21 10° SSE
ATLAS CENTAUR R/B 4.3 20:49:11 10° W 20:51:51 20° NW 20:54:36 10° N
BREEZE-M DEB (TANK) 3.5 20:48:27 10° WSW 20:52:05 89° NNW 21:05:10 10° ENE
ATLAS 2AS CENTAUR R/B 3.4 20:48:25 10° NW 20:54:49 45° WSW 21:01:01 10° S
Landsat 4 4.4 20:52:02 11° SE 20:55:03 35° ENE 20:58:12 10° N
Cosmos 1733 Rocket 3.4 20:53:25 10° NNW 20:57:50 67° W 21:02:13 10° S
NOSS 5 (C) 4.4 20:56:12 10° NW 20:59:21 67° NE 21:02:10 13° SE
Cosmos 1455 2.6 20:56:46 10° N 21:00:07 40° ENE 21:02:59 13° SE
Spot 2 Rocket 3.6 20:56:48 10° SSE 21:01:49 67° ENE 21:06:53 10° N
Cosmos 1408 4.4 21:01:52 10° E 21:02:32 11° E 21:03:10 10° ENE
Cosmos 1655 Rocket 4.4 20:56:57 10° SSW 21:03:19 70° W 21:09:43 10° N
SPOT 3 Rocket 3.8 20:58:51 10° SSE 21:03:49 60° ENE 21:08:56 10° N
Resurs 01 Rocket 4.2 21:05:18 10° SW 21:07:56 15° W 21:10:34 10° NW
Iridium 51 4.5 21:05:35 10° S 21:09:46 61° E 21:13:45 10° N
Meteor 2-20 Rocket 4.4 21:05:28 10° N 21:11:38 80° E 21:17:26 10° SSE
SeaSat 1 2.7 21:08:35 13° SE 21:12:57 60° NE 21:17:48 10° NNW
Cosmos 2360 Rocket 3.9 21:14:27 10° NW 21:19:07 27° WSW 21:23:44 10° SSW
Cosmos 158 Rocket 4.2 21:14:05 10° NNW 21:19:19 63° ENE 21:23:25 16° SE
Cosmos 1953 2.1 21:15:46 10° N 21:19:35 80° E 21:22:43 15° SSE
Cosmos 1908 Rocket 3.5 21:15:31 10° N 21:19:50 69° E 21:23:22 15° SSE
NOSS 8 (H) 4.5 21:15:57 10° SSW 21:19:56 59° SE 21:23:03 10° NE
COSMOS 2428 2.7 21:14:30 10° NNW 21:20:15 83° ENE 21:25:01 15° SSE
Cosmos 2208 Rocket 4.1 21:15:45 10° NNW 21:20:56 68° ENE 21:25:05 16° SSE
Cosmos 1782 Rocket 4.2 21:19:39 10° N 21:23:44 40° ENE 21:26:41 17° SE
CENTAUR R/B 3.7 21:23:46 15° SE 21:26:05 19° ESE 21:30:18 10° ENE
Ariane Rocket 3.1 21:22:31 12° SSE 21:27:13 81° WSW 21:32:20 10° NNW
Cosmos 1300 Rocket 4.3 21:25:03 10° N 21:29:05 37° ENE 21:31:51 18° SE
EXPRESS MD2 3.0 21:26:34 10° WNW 21:29:07 44° N 21:30:59 12° E
Cosmos 2084 Rocket 3.8 21:26:56 10° SSW 21:31:01 42° ESE 21:34:59 10° NE
Cosmos 1486 Rocket 4.1 21:31:43 10° S 21:36:43 55° ESE 21:41:48 10° NNE
Cosmos 1315 Rocket 3.6 21:34:18 10° SSW 21:38:11 51° WNW 21:42:07 10° N
MetOp-A 4.1 21:40:03 18° SSE 21:43:54 70° ENE 21:49:02 10° N
BREEZE-M DEB (TANK) 4.2 21:38:34 10° W 21:43:59 33° NNW 21:46:20 10° NE
ARIANE 5 R/B 4.0 21:41:49 15° ESE 21:44:28 26° ENE 21:48:07 10° N
GP-B 3.5 21:40:15 10° NNE 21:44:31 47° E 21:47:06 22° SSE
SJ 16-02 3.7 21:41:49 10° WSW 21:45:21 24° WNW 21:48:54 10° N
NOSS 0 Rocket 4.0 21:40:17 10° NNW 21:46:34 90° ENE 21:51:08 20° SSE
BlueWalker 3 3.5 21:43:45 10° W 21:47:15 37° NNW 21:50:47 10° NE
Cosmos 371 Rocket 3.3 21:43:56 14° S 21:48:01 60° ESE 21:52:47 10° NNE
SL-4 R/B 2.6 21:45:51 10° WNW 21:49:30 40° SW 21:51:27 24° SSE
MOS 1 Rocket 4.3 21:46:19 11° S 21:51:12 48° W 21:56:11 10° NNW
USA 234 3.3 21:44:49 10° ENE 21:51:15 57° SE 21:57:39 10° SW
Terra 3.0 21:48:05 10° SSW 21:52:25 37° W 21:56:48 10° NNW
Spot 1 4.3 21:51:32 10° NNE 21:56:17 87° ESE 22:00:41 13° SSW
Okean 1-7 4.2 21:52:20 10° SW 21:56:24 40° WNW 22:00:28 10° N
H-2A R/B 4.3 21:56:27 13° ESE 21:58:51 20° ENE 22:01:56 10° NNE
SL-16 R/B 3.8 21:54:37 10° N 21:59:25 27° NE 22:04:11 10° ESE
Cosmos 1386 Rocket 4.5 21:54:35 13° S 22:00:18 90° E 22:06:29 10° N
Cosmos 2237 Rocket 2.3 21:55:41 10° NNW 22:01:21 72° ENE 22:05:00 23° SE
Landsat 5 3.5 21:57:36 10° NNE 22:01:46 84° WNW 22:05:09 16° SSW
Cosmos 1703 Rocket 4.2 21:57:26 10° SSW 22:01:48 55° WNW 22:06:10 10° N
COSMOS 2455 3.0 21:57:07 10° SW 22:03:09 80° NW 22:09:13 10° NNE
Cosmos 1745 Rocket 4.0 21:58:44 15° S 22:04:05 83° E 22:10:30 10° N
Cosmos 1242 Rocket 3.9 22:01:47 10° SW 22:04:06 25° WNW 22:06:26 10° NNW
USA 281 3.9 22:00:04 15° ESE 22:05:13 45° NE 22:11:25 10° NNW
CZ-4C R/B 2.0 22:00:54 10° SW 22:05:22 79° NW 22:11:04 10° NE
Cosmos 2227 Rocket 2.9 22:03:20 23° SSE 22:06:05 36° ESE 22:11:12 10° NE
Nadezhda 1 Rocket 4.0 22:02:21 10° N 22:08:37 79° W 22:13:03 20° S
Meteor 2-5 Rocket 4.2 22:05:17 23° SSE 22:08:42 48° E 22:14:14 10° NNE
Cosmos 773 Rocket 4.0 22:09:56 10° NNW 22:15:07 83° WSW 22:18:03 27° SSE
Cosmos 1980 3.7 22:10:11 10° NNW 22:15:53 85° WSW 22:19:14 26° SSE
Okean 2 Rocket 4.4 22:12:56 10° N 22:16:54 29° ENE 22:18:55 21° ESE
Cosmos 304 Rocket 3.7 22:13:19 15° SSW 22:17:11 89° WNW 22:21:59 10° NNE
Cosmos 2297 Rocket 2.2 22:19:32 11° SSW 22:24:56 89° WNW 22:30:38 10° NNE
ALOS 2 4.1 22:25:43 18° ESE 22:27:54 26° ENE 22:31:32 10° N
MINOTAUR 4 R/B 4.2 22:28:50 10° NNE 22:31:27 37° E 22:31:27 37° E
Cosmos 2219 Rocket 4.5 22:30:08 10° WNW 22:32:41 13° W 22:35:13 10° WSW
Cosmos 1703 3.0 22:33:06 36° SSW 22:34:31 82° W 22:38:13 10° N
Cosmos 1408 3.4 22:33:29 22° SW 22:34:49 34° WNW 22:37:37 10° N
CZ-2C R/B 3.6 22:30:33 10° NNE 22:35:00 78° ESE 22:37:07 31° S
NOSS 3-2 (A) 3.8 22:33:40 29° SSE 22:35:10 34° ESE 22:40:27 10° NE
Cosmos 2098 Rocket 3.9 22:29:08 10° N 22:35:39 75° E 22:38:52 29° SSE
Cosmos 2181 Rocket 4.2 22:32:24 10° N 22:38:29 61° ENE 22:41:46 28° SSE
Cosmos 2219 3.9 22:37:54 28° SE 22:39:48 36° ESE 22:44:54 10° NE
Cosmos 1777 Rocket 4.1 22:39:06 18° SSW 22:43:01 79° WNW 22:48:20 10° NNE
Cosmos 332 Rocket 3.7 22:41:57 30° S 22:44:22 74° ESE 22:49:16 10° NNE
H-2A R/B 4.3 22:44:11 10° E 22:44:43 10° E 22:45:13 10° E
Cosmos 1825 2.7 22:44:58 35° ESE 22:45:13 35° E 22:48:23 10° NNE
Cosmos 2263 Rocket 3.2 22:44:08 25° SE 22:45:36 29° ESE 22:50:19 10° NE
BREEZE-M DEB (TANK) 4.0 22:42:36 10° WNW 22:45:47 68° NNE 22:55:31 10° E
Meteor 1-24 Rocket 3.7 22:42:45 25° S 22:46:12 88° WNW 22:51:45 10° N
Cosmos 2221 Rocket 4.0 22:46:44 35° SE 22:48:04 47° E 22:52:18 10° NNE
SeaSat 1 4.2 22:48:17 15° SW 22:50:42 22° WSW 22:54:27 10° NW
Sich 1 Rocket 3.6 22:50:13 10° N 22:54:36 67° E 22:56:04 40° SSE
Okean 1 Rocket 3.7 22:51:48 10° N 22:56:02 45° ENE 22:57:31 32° SE
Cosmos 1538 Rocket 4.3 22:51:08 10° NNW 22:56:19 59° ENE 22:58:51 29° SE
PSLV R/B 3.8 22:53:22 10° NNE 22:57:22 85° WNW 22:58:44 40° SSW
Cosmos 1818 4.2 22:55:36 10° NNW 23:00:58 51° NE 23:04:38 20° ESE
Cosmos 1892 2.4 23:03:07 60° SSE 23:03:36 72° E 23:07:08 10° NNE
Spot 4 3.8 23:03:31 37° SSE 23:05:25 83° ENE 23:10:17 10° NNW
Cosmos 1025 Rocket 3.7 23:12:05 34° ESE 23:13:00 39° E 23:17:00 10° NNE
Nadezhda 3 Rocket 4.4 23:08:27 10° N 23:14:35 54° ENE 23:17:41 28° SE
Cosmos 967 Rocket 4.5 23:11:00 26° SSW 23:14:49 72° ESE 23:21:17 10° NE
CENTAUR R/B 2.5 23:10:49 16° SW 23:15:29 84° NW 23:22:37 10° NE
Cosmos 405 Rocket 3.7 23:13:44 10° NNW 23:17:13 35° W 23:18:05 31° SW
ARIANE 5 R/B 3.7 23:19:17 27° SW 23:20:44 34° W 23:24:44 10° NNW
Cosmos 1455 Rocket 4.0 23:21:01 10° N 23:25:13 40° ENE 23:26:44 30° ESE
Cosmos 1328 3.7 23:25:24 56° SSE 23:26:04 71° E 23:29:57 10° NNE
BlueWalker 3 3.9 23:22:44 10° WNW 23:26:05 30° N 23:29:25 10° ENE
Cosmos 1898 Rocket 3.9 23:25:19 37° SSE 23:26:48 48° ESE 23:31:45 10° NNE
Cosmos 1378 Rocket 4.1 23:25:05 32° SW 23:26:50 52° WNW 23:31:10 10° N
Aureole 1 Rocket 3.0 23:26:55 49° SSE 23:27:44 61° ESE 23:32:37 10° NNE
Cosmos 2184 Rocket 4.0 23:26:26 32° S 23:29:36 86° E 23:36:02 10° N
Cosmos 1674 Rocket 3.9 23:29:17 35° SW 23:30:50 56° WNW 23:35:06 10° N
H-2A R/B 3.1 23:32:26 37° SW 23:33:29 45° W 23:37:31 10° NNW
USA 234 3.9 23:27:54 10° NE 23:34:17 58° NNW 23:40:40 10° WSW
SL-16 R/B 2.3 23:38:19 10° NNW 23:43:56 61° WSW 23:46:02 37° S
Cosmos 2237 Rocket 3.9 23:40:56 10° WNW 23:44:47 19° W 23:46:48 16° SW
Cosmos 990 Rocket 4.5 23:45:21 25° SW 23:48:10 55° WNW 23:53:14 10° NNE
Cosmos 2154 Rocket 4.0 23:45:18 33° SSW 23:48:19 85° W 23:54:40 10° N
USA 281 3.8 23:46:56 29° SSW 23:49:43 42° WSW 23:55:57 10° NW
Cosmos 2227 Rocket 3.3 23:45:04 12° WSW 23:50:03 41° NW 23:55:24 10° NNE
Cosmos 1943 3.7 23:44:55 10° NNW 23:50:26 54° ENE 23:53:54 22° SE
Cosmos 1867 4.4 23:50:22 30° SE 23:51:26 33° ESE 23:56:16 10° NE
Elektron 3 4.4 23:46:17 10° NW 23:52:13 67° SW 23:52:53 54° S
Cosmos 2082 3.6 23:50:39 35° SSW 23:53:11 89° ESE 23:58:50 10° NNE
USA 238 DEB 4.2 23:52:02 30° SSE 23:53:50 35° ESE 23:59:43 10° NE
USA 238 4.3 23:52:05 29° SSE 23:53:53 35° ESE 23:59:45 10° NE
PSLV R/B 3.4 23:49:43 10° NNE 23:53:56 87° ESE 23:54:55 52° S
Cosmos 292 Rocket 3.8 23:52:49 37° SW 23:54:40 74° WNW 23:59:30 10° NNE
Okean 2 Rocket 4.4 23:50:58 10° NNW 23:54:51 29° W 23:56:12 25° WSW
